GFSFLT2_con_sbcape_114.txt.gz
CAPE
1158 1204 1533 1759 1842 1896 1768 1705 1592 1562 1306 1013 893 802 754 776 782 932 1015 919 961 788 635 225 275 80 1 0 0 0 0 0
1098 1120 1320 1534 1683 1678 1539 1488 1441 1274 1030 942 675 273 272 684 550 650 898 939 818 725 254 99 144 14 0 0 0 0 0 0
653 917 1027 1247 1517 1492 1472 1346 1245 892 786 558 117 31 76 385 419 570 707 612 599 401 119 40 43 8 0 0 0 0 0 0
401 601 771 792 998 1011 1544 1552 1186 641 243 220 130 96 106 127 210 363 426 431 352 208 38 21 10 0 0 0 0 0 0 0
162 164 113 125 336 508 266 427 878 491 89 65 132 75 103 70 153 213 205 243 99 25 0 0 0 0 0 0 0 0 0 0
138 4 0 0 0 1 0 0 122 598 190 65 21 0 15 89 204 204 158 76 16 0 0 0 0 0 0 0 0 0 0 0
55 13 0 0 0 0 0 0 1 136 169 69 18 1 4 76 123 101 72 41 36 0 0 0 0 0 0 0 0 0 0 0
36 43 0 0 0 0 1 0 0 1 34 28 16 11 27 23 54 49 1 1 5 0 0 0 0 0 0 0 0 0 0 0
64 6 0 0 0 0 1 0 1 2 3 34 20 16 14 11 72 31 0 0 0 0 0 0 0 0 0 0 0 0 0 0
97 116 0 0 0 0 0 1 0 0 2 3 65 46 13 41 75 0 0 0 0 0 0 0 0 0 0 0 0 0 0 0
145 124 0 0 0 0 0 0 2 1 1 0 1 69 29 47 59 1 0 0 0 0 0 0 0 0 0 0 0 0 0 0
146 97 2 0 0 0 4 1 0 1 5 3 2 5 14 33 0 0 0 0 0 0 0 0 0 0 0 0 0 0 0 0
113 51 0 0 4 9 2 1 1 8 1 1 1 7 3 0 0 0 0 0 0 0 0 0 0 0 0 0 0 0 0 0
64 33 0 5 12 0 0 0 3 2 1 2 3 13 1 0 0 0 0 0 0 0 0 0 0 0 0 0 0 0 0 0
54 0 0 0 0 0 0 0 1 1 10 5 15 2 0 0 0 0 0 0 0 0 0 0 0 0 0 0 0 0 0 0
4 0 0 0 0 0 0 0 0 1 3 10 8 9 2 0 0 0 0 0 0 0 0 0 0 0 0 0 0 0 0 0
0 0 0 0 0 0 0 0 0 1 3 0 18 22 4 1 0 0 0 0 0 0 0 0 0 0 0 0 0 0 0 0
0 0 1 0 0 0 0 0 0 2 1 6 5 24 38 12 0 0 0 0 0 0 0 0 0 0 0 0 0 0 0 0
0 0 1 0 0 0 0 0 0 0 1 3 7 18 8 22 2 0 0 0 0 0 0 0 0 0 0 0 0 0 0 0
0 0 0 0 0 0 0 0 0 0 0 0 1 4 10 15 25 1 0 0 0 0 0 0 0 0 0 0 0 0 0 0

GFSFLT2_con_sbcape_117.txt.gz
CAPE
1853 1748 1714 1664 1823 1899 1719 1726 1733 1630 1628 1199 1357 1003 819 971 961 1027 1048 992 1042 857 861 689 446 172 20 0 0 0 1 10
1769 1576 1467 2202 2002 1713 1655 1557 1452 1480 1267 1094 794 677 767 911 863 991 951 899 878 912 669 538 271 26 0 0 0 0 0 3
1780 1307 1390 1475 1925 1873 1516 1491 1321 1253 1043 695 584 856 920 631 326 586 795 754 755 518 428 268 63 0 0 0 0 0 0 3
1553 1228 1330 1385 1510 1706 2095 1562 2176 2013 1653 1195 1303 782 626 473 296 464 743 569 455 266 179 138 39 31 2 0 0 0 0 1
1443 1082 1177 1191 1328 1540 1985 1854 1793 1625 1675 1531 997 361 314 652 613 851 922 506 335 201 110 251 151 81 16 0 3 0 6 1
1352 1325 983 1017 1099 1345 1495 1731 1370 1101 875 1004 613 391 558 451 771 846 787 536 326 180 159 103 139 64 0 0 0 0 0 5
1186 1229 1306 948 686 755 782 920 968 978 489 137 216 398 504 87 174 323 384 241 266 103 46 0 23 0 0 1 0 0 0 5
878 1154 1203 1113 1050 670 399 252 291 520 428 124 174 271 353 200 120 183 217 115 149 37 13 0 0 1 5 0 0 0 0 5
616 825 1116 904 806 567 156 61 108 555 745 164 87 55 20 119 57 77 80 28 0 3 10 0 0 0 0 0 0 0 4 5
264 416 798 894 681 398 11 12 10 46 102 163 111 120 35 37 66 45 2 0 0 0 4 0 0 0 0 0 0 0 5 4
34 456 692 799 623 280 11 7 4 4 7 47 118 74 87 94 52 10 0 0 0 0 0 0 0 0 0 0 0 0 4 2
14 563 573 623 485 150 7 7 5 5 8 8 9 38 41 64 70 1 0 0 0 0 0 0 0 0 0 0 1 0 7 4
182 489 522 456 212 63 5 5 5 7 15 10 16 8 39 65 5 1 0 0 1 2 0 0 0 0 2 7 4 2 10 3
289 482 293 562 407 234 127 10 8 2 8 12 10 10 4 24 20 0 0 0 0 0 0 0 0 0 0 3 9 6 9 3
300 423 196 525 485 260 159 23 26 67 22 9 4 1 10 1 1 0 0 0 0 0 0 0 0 1 0 0 12 32 2 2
337 301 221 258 318 249 137 56 5 27 47 4 10 3 1 1 1 1 0 0 0 0 0 0 0 0 0 0 0 0 1 0
291 265 122 16 66 148 222 4 3 154 89 10 36 28 3 3 1 1 0 0 0 0 0 0 2 1 0 0 0 0 0 1
98 194 17 0 14 50 94 10 4 77 84 32 65 24 5 6 1 1 0 0 0 0 0 0 0 0 0 0 0 0 0 2
1 35 2 3 1 1 0 12 73 77 49 108 11 49 41 5 5 2 0 0 0 0 0 0 0 0 0 0 0 0 0 1
1 2 2 2 1 2 9 48 54 99 71 91 40 10 14 15 5 4 1 0 0 0 0 0 0 0 0 3 0 0 0 0

GFSFLT2_con_sbcape_120.txt.gz
CAPE
2538 2087 1897 1498 1933 2006 1779 1577 1636 1816 2032 1942 1345 1010 964 917 1005 1220 1169 1157 1262 1123 916 687 572 376 126 23 5 41 71 35
2580 2492 2108 2296 2084 1772 1744 1625 1502 1669 1685 1399 996 999 735 935 992 1090 1134 1169 1111 971 670 540 396 144 16 0 0 0 38 27
2784 2739 2345 2457 2314 2128 1529 1547 1548 1495 1485 1062 1014 1526 1330 964 787 754 1089 954 925 755 479 323 169 36 2 0 0 17 24 17
2841 2769 2589 2385 2301 2253 2382 2270 2486 2543 2470 2046 1526 1516 1441 931 677 731 841 735 697 507 269 161 142 365 78 0 30 40 16 13
2492 2594 2622 2478 2168 2264 2391 2291 2533 2299 2332 2386 1950 1520 1608 1004 702 876 936 680 380 530 336 489 580 225 63 57 102 36 15 13
2433 2479 2203 2323 2014 2157 2237 2860 2414 2809 2363 2496 2297 1721 1213 893 707 357 813 885 770 654 419 469 213 73 123 163 124 31 12 8
1816 2416 2276 2014 1895 2012 2089 2426 2655 2628 2561 2340 2026 1599 1154 888 777 730 738 983 871 421 287 214 231 273 131 214 116 36 15 5
1183 1881 2303 2151 1748 1740 1808 2007 2259 2327 2109 1999 2063 1501 1018 462 428 1278 445 631 550 233 245 215 287 266 223 193 95 17 10 6
152 867 1839 2320 2133 1547 1391 1554 1647 2092 1767 1673 1768 1298 1075 489 291 490 316 153 154 136 184 154 200 216 237 207 67 16 6 6
0 11 809 1891 2129 2316 1685 1321 1109 1464 1882 1329 1431 1070 830 577 407 237 302 118 43 42 132 164 220 240 200 194 48 15 13 17
0 0 381 1201 1786 2038 2077 1734 1143 1019 1669 1465 859 690 747 321 296 122 192 38 0 1 92 221 238 226 201 143 30 30 30 17
0 0 79 865 1458 1886 1597 936 506 566 931 857 933 682 257 294 177 81 58 3 0 0 42 161 225 235 115 46 60 67 64 40
17 64 323 957 1393 1517 873 536 196 147 239 301 171 414 271 154 112 25 1 1 1 0 24 233 181 186 173 116 64 107 87 25
230 410 720 946 943 958 779 621 461 271 71 132 45 117 304 155 122 42 2 1 1 1 35 131 135 207 88 65 47 43 38 34
296 425 742 740 915 756 940 628 517 106 116 64 75 250 347 242 98 16 3 2 1 0 14 37 138 143 144 16 25 20 35 44
371 531 613 373 730 695 1032 955 902 598 407 391 357 312 212 43 10 9 7 3 2 0 0 33 179 139 144 54 45 22 27 40
516 558 299 306 690 1106 1206 1213 901 617 257 326 312 35 8 48 16 1 1 0 1 1 8 154 162 155 137 80 58 72 59 38
200 235 243 296 541 1043 1134 1167 730 692 550 527 367 10 8 7 2 2 0 1 1 0 0 69 143 194 126 130 80 40 64 61
27 2 77 24 163 594 816 776 585 442 566 456 277 53 9 4 4 2 3 2 0 1 0 111 135 211 193 139 76 26 27 47
50 73 7 11 25 251 464 494 321 331 483 341 198 74 13 8 5 4 3 1 0 0 0 62 158 259 219 214 94 71 40 28

GFSFLT2_con_sbcape_123.txt.gz
CAPE
2557 2184 1805 1647 1989 2085 1781 1856 1892 2128 2146 2171 2006 1195 590 706 872 830 841 875 999 1146 830 636 586 433 321 200 141 243 261 206
2704 2578 2351 2297 2319 1966 1707 1565 1632 1819 2033 1826 1354 963 676 934 875 863 1127 1297 1087 996 561 364 270 215 188 75 50 61 228 69
2851 2913 2665 2723 2524 2248 1680 1483 1427 1441 1759 1188 987 1762 1245 1086 788 968 1251 1077 1002 770 426 236 125 101 81 6 12 16 56 63
2907 3050 2877 2841 2250 2580 2403 2443 2154 2189 2398 2466 2431 2121 1762 1186 799 752 1004 874 763 489 238 78 145 252 85 5 169 44 45 77
2555 2989 3148 2880 2643 2572 2424 2438 2334 2301 2510 2721 2747 1979 2117 1606 1585 858 1078 728 921 557 215 611 607 461 335 225 104 75 43 80
2257 2714 3133 2916 2652 2387 2729 2616 2578 2634 2430 3162 2905 2369 2275 1544 1742 1333 901 944 1027 633 494 371 547 422 120 46 203 27 25 61
1718 2648 3002 2818 3010 2418 2628 2855 2557 2525 2733 3104 2972 2386 1959 1685 1657 943 817 1111 748 820 593 659 447 115 30 197 165 46 20 29
1078 1918 2712 2729 2813 2384 2532 3069 2753 2693 2887 2816 3239 2462 2303 1546 1461 1524 1050 1140 797 357 683 182 175 154 152 127 70 44 14 28
113 1002 1771 2801 2516 2241 2288 2629 2709 2824 2848 3278 3003 2689 2242 1789 1248 1444 999 570 180 165 574 109 122 130 179 166 69 36 7 26
0 0 820 2153 2756 2379 1942 2219 2399 2716 2690 2515 2718 2835 2192 1831 1336 1203 788 271 88 70 89 87 117 194 227 94 51 22 10 20
0 0 121 1399 2092 2521 2383 1759 1734 2035 2546 2234 1739 2232 2031 1651 1213 685 696 641 121 54 46 65 193 129 182 122 112 27 18 11
0 0 67 351 1550 2384 2548 2332 1794 1350 1820 2206 2160 2094 1833 1546 921 561 744 205 51 27 36 57 202 228 138 107 62 47 39 32
10 27 305 48 370 1322 2261 2441 1706 1112 1325 2161 1968 1496 1613 943 801 371 146 10 1 12 17 27 174 193 161 76 88 87 99 42
279 248 280 364 383 1043 1848 1919 565 537 828 1420 1454 1363 920 841 679 139 154 3 3 1 2 9 48 195 141 37 76 85 67 34
436 352 465 732 793 1187 1004 700 483 409 653 668 975 647 896 740 385 91 12 11 3 2 2 7 50 94 121 81 44 54 43 37
661 630 628 841 1043 1262 989 742 729 481 524 536 822 597 565 466 597 164 2 2 2 3 2 6 42 76 137 131 128 38 44 43
294 785 772 824 858 1074 910 904 1171 1184 1282 786 548 672 618 757 590 217 3 1 1 3 3 0 46 74 127 119 145 167 100 52
59 254 363 342 526 809 872 1022 1450 1415 1070 823 798 954 720 517 412 99 26 1 2 2 2 0 16 54 106 191 147 130 43 163
164 53 190 188 400 669 905 1204 1179 1409 837 708 979 270 72 57 37 7 5 2 2 2 1 4 13 36 57 154 191 123 182 201
36 148 129 74 314 342 435 1012 1053 1190 1000 908 888 369 57 10 6 3 5 1 1 2 2 3 13 13 46 174 221 140 193 149

GFSFLT2_con_sbcape_126.txt.gz
CAPE
2004 1572 1438 1570 1811 1754 1729 1971 1665 2062 2060 2105 2024 1541 796 472 569 427 360 595 808 1011 959 717 674 564 389 258 190 182 87 223
2520 2121 1764 1841 1800 1681 1549 1658 1559 1684 2039 1972 1651 1002 420 421 798 851 949 944 866 1068 697 524 345 234 218 178 152 133 36 144
3070 2539 2162 2216 2099 1890 1236 1405 1488 1579 1814 1712 1143 1435 604 855 725 673 1000 981 1106 667 400 261 140 105 99 106 75 99 51 152
3335 2931 2616 2619 2206 2145 1989 1843 1709 1814 2020 1689 1958 1881 1413 942 833 560 1096 1070 902 511 260 104 119 144 57 26 67 98 73 37
3056 3309 2978 2804 2091 2533 2051 2105 2015 2024 2189 2356 2060 2067 1769 1158 1212 808 1100 806 732 459 132 149 488 264 186 156 129 114 21 2
2793 3145 3130 2743 2574 2212 2206 2242 2154 2155 2056 2317 2283 2136 1845 1607 1078 1078 918 706 750 487 195 327 361 290 220 221 72 89 17 0
2532 3047 3221 2858 2861 2244 2004 2222 2252 2262 2268 2244 2415 2136 1795 1483 1260 986 762 643 613 534 415 274 321 282 182 41 40 78 13 0
2563 2721 3172 2951 2660 2430 1973 2121 2375 2406 2397 2310 2474 2160 1820 1617 1492 1139 690 553 581 497 360 222 187 96 4 30 37 42 6 0
1767 2557 3002 2955 2794 2849 2107 1970 2581 2274 2237 2717 2442 2503 2163 1614 1411 1117 835 505 500 365 123 139 78 76 59 73 38 18 2 0
636 1270 1882 3015 2654 2438 1881 1751 2265 2567 2305 2450 2592 2587 2132 1776 1441 1253 942 481 155 103 70 60 71 34 43 68 77 14 6 1
0 7 1237 1829 2614 2241 1932 1798 1851 2099 2586 2467 2458 2579 2129 1813 1437 1188 865 305 45 16 49 39 42 41 49 66 52 12 0 11
0 0 0 299 1618 2393 2147 1918 1785 1773 1850 2419 2103 2017 2243 1899 1469 1221 786 225 46 10 4 16 47 73 67 81 41 7 0 0
0 7 27 20 325 1191 1765 2102 1895 1680 1472 1554 2086 1644 1792 1819 1306 859 644 245 72 19 3 17 13 38 43 65 54 25 11 9
1 281 313 381 8 11 739 1589 2400 1735 1366 1312 1427 1847 1726 1527 1052 678 631 213 47 7 1 0 1 1 35 51 24 39 60 34
357 507 502 514 296 83 945 1224 882 644 797 981 1202 1405 1323 1298 1027 501 352 90 30 2 0 0 0 0 29 25 14 17 26 31
356 631 881 720 927 594 1047 941 645 543 574 507 675 914 893 859 713 348 161 58 6 0 1 0 0 0 22 44 17 0 0 26
180 246 531 933 1054 1023 1367 890 784 504 416 304 434 626 584 644 547 393 113 71 7 1 1 1 0 0 7 4 29 28 12 0
391 193 125 267 335 340 1116 996 572 440 421 436 406 465 601 488 347 484 86 42 17 1 2 3 0 0 17 14 11 44 5 0
11 23 75 288 287 375 518 841 763 799 962 865 662 619 669 513 488 432 73 7 1 0 3 8 1 2 11 9 10 54 19 2
10 0 34 255 178 173 309 582 826 872 718 680 654 686 354 131 112 36 32 2 0 0 0 2 1 2 19 15 27 56 45 42

GFSFLT2_con_sbcape_129.txt.gz
CAPE
783 902 1378 1475 1524 1737 1918 1857 1645 1794 1525 1991 2006 1608 793 568 955 495 407 368 768 640 768 884 834 808 630 295 138 80 111 210
761 756 978 1066 1150 1389 1633 1512 1527 1719 1601 1809 1663 1042 253 470 564 541 587 627 988 1049 834 760 742 593 417 215 91 18 36 46
1064 972 956 1069 1095 1124 1318 1413 1315 1551 1523 1650 1049 641 173 462 443 657 943 928 1003 937 667 530 416 288 268 203 82 3 20 38
1493 1266 1206 1239 1548 1229 861 1140 1125 1182 1547 1659 1049 698 252 289 536 618 853 835 1015 722 474 252 167 132 115 133 55 0 15 34
2010 1741 1508 1528 1702 1169 1178 1075 1124 1131 1276 1570 1679 1396 688 501 436 478 666 831 649 428 151 113 177 128 84 82 56 0 4 38
2399 2151 1877 1795 1287 1368 1289 1385 1218 1342 1424 1540 1589 1585 1141 667 549 500 729 664 385 241 89 113 189 156 117 105 64 0 0 2
2405 2273 2126 2105 1609 1604 1455 1467 1447 1470 1482 1763 1579 1687 1431 958 629 739 753 540 406 150 90 163 270 205 137 106 53 0 0 0
2215 2589 2337 1996 1932 1526 1542 1408 1434 1483 1479 1588 1813 1573 1266 1035 597 693 567 484 433 314 175 177 185 140 117 24 20 0 0 0
1945 2474 2546 2288 2094 1585 1404 1330 1511 1600 1654 1416 1721 1678 1226 968 849 616 424 348 300 249 183 78 56 60 82 78 16 0 0 2
1928 2617 2635 2564 2084 1835 1491 1274 1490 1630 1519 1619 1765 1753 1387 994 948 753 411 338 300 209 25 6 19 24 46 49 33 0 0 0
162 1348 2505 2244 2107 2008 1695 1363 1567 1557 1867 1632 1764 1914 1486 1150 947 637 330 331 191 45 1 0 5 29 43 55 57 3 1 0
0 0 403 1425 1854 1745 1450 1163 1244 1285 1310 1964 1708 1979 1466 1243 795 702 359 123 67 38 1 0 0 3 95 38 24 0 3 0
0 0 0 0 707 1768 1550 1519 1218 1135 1247 1351 1847 1805 1613 1217 861 743 370 159 94 0 0 3 2 3 16 9 4 0 0 5
23 16 1 0 0 243 1301 1787 1431 1375 1202 977 1492 1544 1495 1214 1141 895 639 288 63 0 0 6 0 3 12 1 19 3 1 0
46 41 104 129 1 0 6 469 886 1235 1240 1088 1010 1331 1315 1451 985 817 617 363 145 37 3 6 2 2 3 0 0 2 5 4
61 65 16 56 217 0 96 357 583 614 1041 1157 963 963 1288 1328 884 724 609 336 127 55 2 0 0 1 3 0 0 0 0 11
44 60 33 37 145 203 320 395 164 61 153 483 655 675 977 904 735 416 445 259 143 55 11 0 0 0 4 0 0 0 0 1
20 0 0 3 59 86 43 490 289 157 170 281 313 415 483 687 553 301 215 168 23 10 0 5 0 0 0 4 0 0 0 0
35 7 2 58 113 94 57 146 448 221 190 177 163 238 420 390 470 450 221 92 17 2 4 13 0 0 0 1 0 0 0 0
26 0 0 8 105 82 79 98 306 522 306 230 380 275 273 361 316 362 266 79 15 1 1 5 2 0 0 3 0 5 0 0

GFSFLT2_con_sbcape_132.txt.gz
CAPE
736 1068 1299 1451 1732 1795 1817 1811 1799 1763 1901 2023 2047 1735 1292 1054 602 703 880 822 1094 936 784 791 781 718 475 261 59 149 207 249
569 845 1116 1117 1336 1567 1684 1401 1692 1698 1739 1861 1639 1108 994 762 449 511 273 817 749 840 789 718 703 537 357 176 0 72 100 94
460 685 864 770 882 1259 1465 1217 1505 1500 1400 1606 1038 524 266 515 230 345 319 800 870 867 814 778 752 522 296 101 0 0 40 102
582 565 674 718 1046 1030 1199 1071 1378 1471 1389 1222 1058 304 8 38 65 251 651 763 881 868 754 698 570 226 174 81 0 0 20 46
901 655 601 853 1151 891 856 985 889 1071 1219 1411 1132 417 163 72 73 341 408 625 656 635 428 195 171 139 116 17 4 13 0 51
1269 863 788 918 1092 770 806 1050 981 918 1087 1462 1434 1058 359 142 102 83 226 491 394 369 205 66 89 97 90 28 4 0 0 35
1671 1323 1085 1145 1071 897 818 831 733 768 1029 1229 1224 1524 965 357 180 148 270 354 160 198 26 45 89 91 121 43 2 0 0 7
2065 1777 1539 1478 1270 1284 1005 979 876 921 1059 1267 1384 1295 1252 536 286 309 356 366 253 164 0 42 187 151 84 19 0 0 0 0
2173 2052 1831 1868 1670 1446 1337 1067 1119 1128 1149 1243 1288 1428 1201 838 476 479 403 384 263 86 22 51 100 82 98 50 1 0 0 0
2001 2513 2084 1883 2127 1543 1454 1256 1191 1269 1271 1152 1559 1427 1011 767 534 498 309 251 293 192 67 32 4 7 22 12 1 0 0 0
1576 2431 2368 2132 2044 1638 1314 1078 1219 1238 1358 1355 1281 1510 1105 810 732 472 154 213 243 207 24 0 6 4 16 0 0 0 0 0
945 2146 2563 2257 1657 1647 1145 916 1051 936 1330 1488 1390 1554 1282 958 801 516 246 226 241 122 8 0 2 5 32 3 12 0 0 1
0 780 1472 1132 1170 1354 1106 1327 852 794 688 1446 1368 1684 1470 1017 738 381 333 384 224 71 1 0 0 0 3 30 21 0 0 0
0 0 0 70 317 1361 1306 1468 1080 1128 910 656 1301 1458 1397 892 619 386 292 260 111 60 22 0 0 1 8 9 2 2 0 0
57 57 54 2 0 0 210 764 763 1002 797 786 641 1132 1164 904 518 421 245 210 141 90 34 7 0 9 1 0 0 2 0 0
61 52 43 152 63 0 197 965 1505 1389 1407 1159 831 484 798 901 651 521 396 282 171 114 55 27 1 0 5 0 0 0 0 0
23 35 26 53 137 128 88 58 2 38 840 1088 914 667 997 988 747 562 469 441 279 151 81 24 0 1 4 1 0 0 0 0
0 37 154 142 132 49 30 102 180 84 211 648 582 420 839 981 848 732 591 410 196 184 99 27 0 0 2 1 0 0 0 0
10 22 33 91 81 118 56 35 103 135 75 298 238 211 353 721 701 520 414 313 187 181 135 53 0 3 0 0 2 0 0 0
24 11 2 18 18 14 27 10 21 118 176 101 171 201 233 409 601 415 278 150 110 109 111 62 14 0 0 0 12 0 0 0